This is the latest recevied weather packets stored in our database for station/object KD0RIH. If no packets are shown the sender has not sent any weather packets the latest 1 day(s).
| Time | Temp. | Humidity | Pressure | Rain* | Wind** | Luminosity | Snow |
|---|---|---|---|---|---|---|---|
| 1778003299 | 12.22° C | 55% | 1012.3 hPa | 0 mm | 0.45 m/s, 338° | 216 W/m² | - |
| 1778002997 | 12.22° C | 55% | 1012.4 hPa | 0 mm | 0 m/s | 230 W/m² | - |
| 1778002692 | 11.67° C | 61% | 1012.5 hPa | 0 mm | 0 m/s | 217 W/m² | - |
| 1778002389 | 11.67° C | 57% | 1012.6 hPa | 0 mm | 0.45 m/s, 351° | 206 W/m² | - |
| 1778002092 | 11.67° C | 55% | 1012.7 hPa | 0 mm | 0.45 m/s, 1° | 198 W/m² | - |
| 1778001783 | 11.11° C | 60% | 1012.5 hPa | 0 mm | 0.45 m/s, 352° | 206 W/m² | - |
| 1778001478 | 11.67° C | 64% | 1012.4 hPa | 0 mm | 0 m/s | 176 W/m² | - |
| 1778001175 | 12.22° C | 66% | 1012.7 hPa | 0 mm | 0 m/s | 142 W/m² | - |
| 1778000872 | 12.22° C | 69% | 1013 hPa | 0 mm | 0 m/s | 130 W/m² | - |
| 1778000569 | 12.22° C | 66% | 1012.9 hPa | 0 mm | 0 m/s | 126 W/m² | - |
| 1778000270 | 11.67° C | 71% | 1013.1 hPa | 0 mm | 0 m/s | 135 W/m² | - |
| 1777999966 | 11.11° C | 70% | 1013.4 hPa | 0 mm | 0 m/s | 147 W/m² | - |
| 1777999662 | 11.11° C | 69% | 1013.2 hPa | 0 mm | 0 m/s | 130 W/m² | - |
| 1777999359 | 11.11° C | 71% | 1013 hPa | 0 mm | 0.45 m/s, 322° | 119 W/m² | - |
| 1777999057 | 11.11° C | 69% | 1013.2 hPa | 0 mm | 0 m/s | 121 W/m² | - |
| 1777998756 | 11.11° C | 67% | 1013.3 hPa | 0 mm | 0 m/s | 140 W/m² | - |
| 1777998452 | 11.11° C | 70% | 1013.1 hPa | 0 mm | 0 m/s | 148 W/m² | - |
| 1777998149 | 11.11° C | 69% | 1013 hPa | 0 mm | 0 m/s | 133 W/m² | - |
| 1777997846 | 11.11° C | 72% | 1013 hPa | 0 mm | 0 m/s | 123 W/m² | - |
| 1777997544 | 11.11° C | 78% | 1012.9 hPa | 0 mm | 0 m/s | 141 W/m² | - |
| 1777997241 | 10.56° C | 73% | 1012.4 hPa | 0 mm | 0 m/s | 127 W/m² | - |
| 1777996939 | 10.56° C | 72% | 1012.3 hPa | 0 mm | 0.89 m/s, 137° | 121 W/m² | - |
| 1777996635 | 10.56° C | 71% | 1012.6 hPa | 0 mm | 0 m/s | 94 W/m² | - |
| 1777996331 | 10.56° C | 72% | 1012.7 hPa | 0 mm | 0 m/s | 78 W/m² | - |
| 1777996028 | 10.56° C | 75% | 1012.6 hPa | 0 mm | 0 m/s | 88 W/m² | - |
* Rain latest hour (hover to see other rain measurements)
** Current wind speed in m/s (hover to see current wind gust speed)